sat.trackr.live / text

‹ back to catalog

STARLINK-37236

NORAD 68781 · 2026-086R

PAYLOAD ACTIVE UNKNOWN

§ Identity

Operator
Country
US
Launch date
2026-04-19
Launch site
AFWTR
Launch vehicle
Mass (kg)
RCS (m²)

Purposes: comms

External: N2YO · Heavens-Above · Gunter

§ Orbital elements

Epoch: 2026-09-19T08:54:34.221888Z

Period
93.91 min
Inclination
97.2866°
Eccentricity
0.0000704
Mean motion
15.33450202 rev/d
Perigee alt
465.0 km
Apogee alt
466.0 km
Semi-major
6,843.7 km
B*
5.6688e-4
RAAN
297.8398°
Arg perigee
96.1844°
Mean anomaly
263.9479°
Rev number
2,351

§ Raw data

STARLINK-372361 68781U 26086R   26262.37122942  .00018273  00000+0  56688-3 0  99962 68781  97.2866 297.8398 0000704  96.1844 263.9479 15.33450202 23515

JSON: /api/v1/satellites/68781 · /tle

For live sub-satellite position, see the globe view (requires WebGL).

§ Visibility from observer

Set your observer location to see the next 7 days of passes ≥ 10°. The values pass through the URL so the page stays shareable.

No JS? Fill the form by hand. The geolocation button needs JavaScript.